{"data":{"norad_id":2866,"intl_designator":"1967-066E","name":"LES-5","alt_names":[],"object_type":"PAYLOAD","status":"ACTIVE","operator":null,"country":"US","launch_date":"1967-07-01","launch_site_code":"AFETR","launch_vehicle":null,"mission":null,"orbit_class":"UNKNOWN","rcs_meters":2.5562,"size_class":null,"mass_kg":null,"dimensions":null,"purposes":[],"wikipedia_slug":null,"has_3d_model":false,"image_url":null,"decayed_at":null,"tle_current":{"epoch":"2026-09-20T03:57:09.260064Z","epoch_age_seconds":40158,"freshness":"FRESH","line1":"1 02866U 67066E   26263.16469051 -.00000112  00000+0  00000+0 0  9991","line2":"2 02866   2.8384  93.6009 0052129 214.8063   6.0977  1.09426095132077","mean_motion":1.09426095,"eccentricity":0.0052129,"inclination_deg":2.8384,"raan_deg":93.6009,"arg_perigee_deg":214.8063,"mean_anomaly_deg":6.0977,"bstar":0,"rev_number":13207,"period_min":1315.9566737715,"perigee_km":33193.56398306,"apogee_km":33608.292561777,"semimajor_km":39779.065272418,"source":"CELESTRAK","updated_at":"2026-09-20T09:00:13.500993Z"}}}